Oakland, MD

5:23 AM EDT on August 18, 2017 (GMT -0400)
Oakland

Weather History for K2G4 - September, 2013

Change the Weather History Date:

Wednesday, September 4, 2013

  Actual Average (KMGW) Record (KMGW)
Temperature  
Mean Temperature 60 °F -  
Max Temperature 69 °F 79 °F 95 °F (1953)
Min Temperature 50 °F 60 °F 42 °F (1997)
Degree Days  
Heating Degree Days 6    
Growing Degree Days 10 (Base 50)    
Moisture  
Dew Point 53 °F    
Average Humidity 72    
Maximum Humidity 100    
Minimum Humidity 43    
Precipitation  
Precipitation 0.00 in - - ()
Sea Level Pressure  
Sea Level Pressure 30.15 in    
Wind  
Wind Speed 4 mph (WNW)    
Max Wind Speed 9 mph    
Max Gust Speed 17 mph    
Visibility 8 miles    
Events Fog    
Averages and records for this station are not official NWS values.
T = Trace of Precipitation, MM = Missing Value Source: NWS Daily Summary

Daily Weather History Graph

Daily Weather History Graph

Search for Another Location

Airport or City:

Trip Planner

Search our weather history database for the weather conditions in past years. The results will help you decide how hot, cold, wet, or windy it might be!

Date:

Astronomy

Sep. 04, 2013 Rise Set
Actual Time 6:48 AM EDT 7:43 PM EDT
Civil Twilight 6:21 AM EDT 8:10 PM EDT
Nautical Twilight 5:48 AM EDT 8:43 PM EDT
Astronomical Twilight 5:14 AM EDT 9:16 PM EDT
Moon 5:58 AM EDT (9/4) 7:02 PM EDT (9/4)
Length of Visible Light 13h 49m
Length of Day
12h 54m
Waning Crescent, 1% of the Moon is Illuminated
Sep 4
Waning Crescent
Sep 5
New
Sep 12
First Quarter
Sep 19
Full
Sep 26
Last Quarter

Hourly Weather History & Observations

Time (EDT) Temp. Dew Point Humidity Pressure Visibility Wind Dir Wind Speed Gust Speed Precip Events Conditions
12:05 AM 53.6 °F - N/A% 30.10 in 7.0 mi Calm Calm - N/A   Overcast
12:25 AM 53.6 °F - N/A% 30.09 in 7.0 mi Calm Calm - N/A   Overcast
12:45 AM 53.6 °F - N/A% 30.10 in 5.0 mi Calm Calm - N/A   Haze
1:05 AM 53.6 °F - N/A% 30.09 in 5.0 mi WNW 3.5 mph - N/A   Haze
1:25 AM 51.8 °F - N/A% 30.10 in 5.0 mi WNW 3.5 mph - N/A   Haze
1:45 AM 51.8 °F - N/A% 30.10 in 5.0 mi WNW 4.6 mph - N/A   Haze
2:05 AM 51.8 °F - N/A% 30.10 in 5.0 mi WNW 3.5 mph - N/A   Haze
2:25 AM 51.8 °F - N/A% 30.10 in 7.0 mi WNW 4.6 mph - N/A   Overcast
2:45 AM 51.8 °F - N/A% 30.10 in 10.0 mi NW 4.6 mph - N/A   Overcast
3:05 AM 51.8 °F - N/A% 30.10 in 7.0 mi NW 5.8 mph - N/A   Scattered Clouds
3:45 AM 51.8 °F - N/A% 30.10 in 3.0 mi NNW 3.5 mph - N/A   Scattered Clouds
4:05 AM 50.0 °F - N/A% 30.10 in 2.0 mi WNW 3.5 mph - N/A   Overcast
5:05 AM 50.0 °F - N/A% 30.11 in 4.0 mi West 4.6 mph - N/A   Haze
5:45 AM 50.0 °F - N/A% 30.12 in 5.0 mi WNW 3.5 mph - N/A   Haze
6:05 AM 50.0 °F - N/A% 30.13 in 3.0 mi WNW 4.6 mph - N/A   Clear
6:25 AM 50.0 °F - N/A% 30.13 in 2.0 mi West 4.6 mph - N/A   Mostly Cloudy
6:45 AM 50.0 °F - N/A% 30.14 in 1.8 mi West 3.5 mph - N/A   Overcast
7:05 AM 50.0 °F - N/A% 30.15 in 0.2 mi West 3.5 mph - N/A Fog Fog
7:25 AM 50.0 °F - N/A% 30.15 in 0.5 mi Calm Calm - N/A Fog Fog
7:45 AM 50.0 °F - N/A% 30.16 in 1.8 mi Calm Calm - N/A   Overcast
8:05 AM 51.8 °F - N/A% 30.16 in 4.0 mi Calm Calm - N/A   Haze
8:25 AM 51.8 °F - N/A% 30.17 in 5.0 mi Calm Calm - N/A   Haze
8:45 AM 51.8 °F - N/A% 30.17 in 10.0 mi Calm Calm - N/A   Mostly Cloudy
9:05 AM 53.6 °F - N/A% 30.17 in 10.0 mi NW 4.6 mph - N/A   Scattered Clouds
9:25 AM 55.4 °F 55.4 °F 100% 30.18 in 10.0 mi WNW 4.6 mph - N/A   Scattered Clouds
9:45 AM 55.4 °F 55.4 °F 100% 30.19 in 10.0 mi WNW 5.8 mph - N/A   Scattered Clouds
10:05 AM 55.4 °F 55.4 °F 100% 30.19 in 10.0 mi NW 4.6 mph - N/A   Scattered Clouds
10:25 AM 59.0 °F 53.6 °F 82% 30.18 in 10.0 mi NW 4.6 mph - N/A   Scattered Clouds
10:45 AM 59.0 °F 53.6 °F 82% 30.19 in 10.0 mi West 6.9 mph - N/A   Clear
11:05 AM 59.0 °F 53.6 °F 82% 30.19 in 10.0 mi Calm Calm - N/A   Clear
11:25 AM 60.8 °F 53.6 °F 77% 30.19 in 10.0 mi WNW 3.5 mph - N/A   Clear
11:45 AM 60.8 °F 53.6 °F 77% 30.19 in 10.0 mi North 3.5 mph - N/A   Clear
12:05 PM 62.6 °F 53.6 °F 72% 30.18 in 10.0 mi WNW 3.5 mph - N/A   Clear
12:25 PM 62.6 °F 53.6 °F 72% 30.18 in 10.0 mi WNW 5.8 mph - N/A   Clear
12:45 PM 64.4 °F 53.6 °F 68% 30.18 in 10.0 mi WNW 4.6 mph - N/A   Clear
1:05 PM 64.4 °F 51.8 °F 64% 30.18 in 10.0 mi West 3.5 mph - N/A   Clear
1:25 PM 66.2 °F 51.8 °F 60% 30.17 in 10.0 mi NNW 3.5 mph - N/A   Clear
1:45 PM 66.2 °F 51.8 °F 60% 30.17 in 10.0 mi WSW 4.6 mph - N/A   Clear
2:05 PM 68.0 °F 53.6 °F 60% 30.17 in 10.0 mi NNW 4.6 mph - N/A   Clear
2:25 PM 68.0 °F 53.6 °F 60% 30.17 in 10.0 mi NNW 3.5 mph - N/A   Clear
2:45 PM 68.0 °F 51.8 °F 56% 30.16 in 10.0 mi West 4.6 mph - N/A   Clear
3:05 PM 68.0 °F 51.8 °F 56% 30.16 in 10.0 mi West 4.6 mph - N/A   Clear
3:25 PM 69.8 °F 53.6 °F 56% 30.16 in 10.0 mi WNW 6.9 mph - N/A   Clear
3:45 PM 69.8 °F 50.0 °F 49% 30.16 in 10.0 mi West 8.1 mph - N/A   Clear
4:05 PM 69.8 °F 51.8 °F 53% 30.16 in 10.0 mi WNW 6.9 mph - N/A   Clear
4:25 PM 69.8 °F 51.8 °F 53% 30.16 in 10.0 mi WNW 4.6 mph - N/A   Clear
4:45 PM 68.0 °F 50.0 °F 52% 30.16 in 10.0 mi WNW 6.9 mph - N/A   Clear
5:05 PM 68.0 °F 50.0 °F 52% 30.16 in 10.0 mi West 6.9 mph - N/A   Clear
5:25 PM 68.0 °F 48.2 °F 49% 30.16 in 10.0 mi WNW 4.6 mph - N/A   Clear
5:45 PM 68.0 °F 44.6 °F 43% 30.17 in 10.0 mi West 5.8 mph - N/A   Clear
6:05 PM 68.0 °F 46.4 °F 46% 30.16 in 10.0 mi West 6.9 mph - N/A   Clear
6:25 PM 66.2 °F 51.8 °F 60% 30.16 in 10.0 mi West 5.8 mph - N/A   Clear
6:45 PM 64.4 °F 51.8 °F 64% 30.16 in 10.0 mi West 6.9 mph - N/A   Clear
7:05 PM 62.6 °F 53.6 °F 72% 30.16 in 10.0 mi West 4.6 mph - N/A   Clear
7:25 PM 62.6 °F 53.6 °F 72% 30.16 in 10.0 mi West 5.8 mph - N/A   Clear
7:45 PM 60.8 °F 53.6 °F 77% 30.16 in 10.0 mi West 4.6 mph - N/A   Clear
8:05 PM 59.0 °F 55.4 °F 88% 30.16 in 10.0 mi WSW 4.6 mph - N/A   Clear
8:25 PM 59.0 °F 53.6 °F 82% 30.16 in 10.0 mi WSW 5.8 mph - N/A   Clear
8:45 PM 59.0 °F 55.4 °F 88% 30.16 in 10.0 mi WSW 6.9 mph - N/A   Clear
9:10 PM 59.0 °F 55.4 °F 88% 30.17 in 10.0 mi West 6.9 mph - N/A   Clear
9:30 PM 59.0 °F 55.4 °F 88% 30.17 in 10.0 mi West 5.8 mph - N/A   Clear
9:50 PM 59.0 °F 55.4 °F 88% 30.18 in 10.0 mi West 8.1 mph - N/A   Clear
10:10 PM 59.0 °F 55.4 °F 88% 30.18 in 10.0 mi West 8.1 mph - N/A   Clear
10:30 PM 59.0 °F 55.4 °F 88% 30.19 in 10.0 mi West 9.2 mph 17.3 mph N/A   Clear
10:50 PM 59.0 °F 55.4 °F 88% 30.18 in 10.0 mi West 8.1 mph - N/A   Clear
11:10 PM 59.0 °F 55.4 °F 88% 30.18 in 10.0 mi WSW 8.1 mph 16.1 mph N/A   Clear
11:30 PM 59.0 °F 55.4 °F 88% 30.19 in 10.0 mi West 8.1 mph - N/A   Clear
11:50 PM 57.2 °F 55.4 °F 94% 30.18 in 10.0 mi West 8.1 mph - N/A   Clear